Home > Time Zones > World Clock > Weather > Peru > Callao > Past weeks

Flag for Peru Weather past 2 weeks in Callao, Callao, Peru

Now
70 °F

Sunny.


Feels Like: 70 °F
Forecast: N/A
Wind: 15 mph from South

Location: Lima-Callao / Aerop. Internacional Jorgechavez

Current Time: Dec 19, 2014 at 6:37:46 PM

Latest Report: Dec 19, 2014 at 6:00 PM


Visibility: 10 mi

Pressure: 29.86 "Hg

Humidity: 73%

Dew point: 61 °F

Location of CallaoLocation

Historic Weather in Callao — Graph

°F

Callao temperature yesterday

Maximum temperature yesterday: 72 °F (at 11:00 AM)
Minimum temperature yesterday: 66 °F (at 3:00 AM)
Average temperature yesterday: 69 °F

Past Weeks' High & Low Weather Summary

 TemperatureHumidityPressure
High79 °F (Dec 9, 1:00 PM)94% (Dec 7, 6:00 AM)30.07 "Hg (Dec 7, 6:00 AM)
Low64 °F (Dec 5, 5:00 AM)54% (Dec 9, 1:00 PM)29.86 "Hg (Dec 4, 5:00 PM)
Average69 °F80%29.95 "Hg
* Reported Dec 4 5:00 PM — Dec 19 5:00 PM, Callao, Weather by CustomWeather, © 2014

Note: Actual official high and low records may vary slightly from our data, if they occured in-between our weather recording intervals... More about our weather records

Advertising

Callao weather history for previous 24 hours

 ConditionsComfort  
Time TempWeatherWind HumidityBarometerVisibility
5:00 PM
Dec 19
72 °FSunny.14 mph73%29.86 "Hg10 mi
4:00 PM73 °FScattered clouds.12 mph69%29.86 "HgN/A
3:00 PM73 °FOvercast.9 mph69%29.89 "HgN/A
2:00 PM73 °FOvercast.8 mph65%29.92 "HgN/A
1:00 PM73 °FMostly cloudy.9 mph65%29.95 "HgN/A
12:00 PM73 °FMostly cloudy.7 mph65%29.95 "HgN/A
11:00 AM70 °FOvercast.9 mph78%29.95 "HgN/A
10:00 AM70 °FOvercast.8 mph78%29.98 "HgN/A
9:00 AM68 °FOvercast.9 mph83%29.98 "HgN/A
8:00 AM68 °FOvercast.9 mph83%29.95 "HgN/A
7:00 AM66 °FOvercast.8 mph88%29.95 "HgN/A
6:00 AM66 °FOvercast.7 mph88%29.92 "HgN/A
5:00 AM66 °FOvercast.9 mph88%29.92 "HgN/A
4:00 AM66 °FOvercast.8 mph88%29.92 "HgN/A
3:00 AM66 °FOvercast.8 mph88%29.92 "HgN/A
2:00 AM68 °FOvercast.10 mph83%29.92 "HgN/A
1:00 AM68 °FOvercast.10 mph83%29.95 "HgN/A
12:00 AM68 °FOvercast.12 mph83%29.98 "HgN/A
11:00 PM
Dec 18
68 °FOvercast.12 mph83%29.98 "HgN/A
10:00 PM68 °FOvercast.10 mph83%29.98 "HgN/A
9:00 PM68 °FOvercast.10 mph83%29.98 "HgN/A
8:00 PM68 °FOvercast.10 mph83%29.95 "HgN/A
7:00 PM68 °FOvercast.10 mph83%29.92 "HgN/A
6:00 PM68 °FOvercast.12 mph83%29.92 "HgN/A
Weather by CustomWeather, © 2014

See weather overviewHow to use our weather pages